Time,TemperatureF,DewpointF,PressureIn,WindDirection,WindDirectionDegrees,WindSpeedMPH,WindSpeedGustMPH,Humidity,HourlyPrecipIn,Conditions,Clouds,dailyrainin,SolarRadiationWatts/m^2,SoftwareType,DateUTC
2013-05-08 00:01:00,63.0,55.7,30.12,South,188,2.2,4.0,77,0.00,BKN,,0.00,0.0,WeatherDisplay:10.37,2013-05-08 04:01:00,
2013-05-08 00:06:00,62.9,55.9,30.12,South,186,2.2,9.2,78,0.00,BKN,,0.00,0.0,WeatherDisplay:10.37,2013-05-08 04:06:00,
2013-05-08 00:11:00,62.8,55.8,30.12,South,186,1.9,3.5,78,0.00,BKN,,0.00,0.0,WeatherDisplay:10.37,2013-05-08 04:11:00,
2013-05-08 00:16:00,62.8,55.8,30.11,South,186,1.3,3.5,78,0.00,BKN,,0.00,0.0,WeatherDisplay:10.37,2013-05-08 04:16:00,
2013-05-08 00:21:00,62.7,55.7,30.12,South,182,3.2,5.8,78,0.00,BKN,,0.00,0.0,WeatherDisplay:10.37,2013-05-08 04:21:00,
2013-05-08 00:26:00,62.5,55.9,30.12,South,178,2.6,9.0,79,0.00,BKN,,0.00,0.0,WeatherDisplay:10.37,2013-05-08 04:26:00,
2013-05-08 00:31:00,62.4,55.8,30.11,South,184,2.4,5.8,79,0.00,BKN,,0.00,0.0,WeatherDisplay:10.37,2013-05-08 04:31:00,
2013-05-08 00:36:00,62.3,55.7,30.11,South,181,3.5,8.1,79,0.00,BKN,,0.00,0.0,WeatherDisplay:10.37,2013-05-08 04:36:00,
2013-05-08 00:41:00,62.2,55.6,30.11,South,178,3.8,6.9,79,0.00,BKN,,0.00,0.0,WeatherDisplay:10.37,2013-05-08 04:41:00,
2013-05-08 00:46:00,62.1,55.5,30.11,South,180,2.2,6.0,79,0.00,BKN,,0.00,0.0,WeatherDisplay:10.37,2013-05-08 04:46:00,
2013-05-08 00:51:00,62.0,55.8,30.11,South,180,1.8,4.0,80,0.00,BKN,,0.00,0.0,WeatherDisplay:10.37,2013-05-08 04:51:00,
2013-05-08 00:56:00,61.8,55.6,30.11,South,180,2.1,3.5,80,0.00,BKN,,0.00,0.0,WeatherDisplay:10.37,2013-05-08 04:56:00,
2013-05-08 01:01:00,61.8,55.9,30.11,South,186,2.9,6.9,81,0.00,BKN,,0.00,0.0,WeatherDisplay:10.37,2013-05-08 05:01:00,
2013-05-08 01:06:00,61.8,55.9,30.11,South,184,1.0,3.5,81,0.00,BKN,,0.00,0.0,WeatherDisplay:10.37,2013-05-08 05:06:00,
2013-05-08 01:11:00,61.8,55.9,30.11,South,182,0.3,6.9,81,0.00,BKN,,0.00,0.0,WeatherDisplay:10.37,2013-05-08 05:11:00,
2013-05-08 01:16:00,61.6,55.7,30.11,South,177,2.1,4.0,81,0.00,BKN,,0.00,0.0,WeatherDisplay:10.37,2013-05-08 05:16:00,
2013-05-08 01:21:00,61.4,55.9,30.10,South,175,0.5,3.5,82,0.00,BKN,,0.00,0.0,WeatherDisplay:10.37,2013-05-08 05:21:00,
2013-05-08 01:26:00,61.3,55.8,30.10,SSE,160,2.9,5.8,82,0.00,BKN,,0.00,0.0,WeatherDisplay:10.37,2013-05-08 05:26:00,
2013-05-08 01:31:00,60.9,55.7,30.10,ESE,123,3.1,8.1,83,0.00,BKN,,0.00,0.0,WeatherDisplay:10.37,2013-05-08 05:31:00,
2013-05-08 01:36:00,60.8,55.6,30.10,SE,124,1.2,4.6,83,0.00,BKN,,0.00,0.0,WeatherDisplay:10.37,2013-05-08 05:36:00,
2013-05-08 01:41:00,60.7,55.5,30.10,SSE,159,2.7,6.0,83,0.00,BKN,,0.00,0.0,WeatherDisplay:10.37,2013-05-08 05:41:00,
2013-05-08 01:46:00,60.6,55.7,30.10,SSE,161,0.1,3.5,84,0.00,BKN,,0.00,0.0,WeatherDisplay:10.37,2013-05-08 05:46:00,
2013-05-08 01:51:00,60.5,55.6,30.10,SSE,152,0.1,4.6,84,0.00,BKN,,0.00,0.0,WeatherDisplay:10.37,2013-05-08 05:51:00,
2013-05-08 01:56:00,60.4,55.5,30.10,SE,145,3.0,4.0,84,0.00,BKN,,0.00,0.0,WeatherDisplay:10.37,2013-05-08 05:56:00,
2013-05-08 02:01:00,60.4,55.5,30.09,SE,144,0.6,4.6,84,0.00,BKN,,0.00,0.0,WeatherDisplay:10.37,2013-05-08 06:01:00,
2013-05-08 02:06:00,60.4,55.9,30.09,SE,141,1.6,4.6,85,0.00,BKN,,0.00,0.0,WeatherDisplay:10.37,2013-05-08 06:06:00,
2013-05-08 02:11:00,60.4,55.5,30.09,SE,141,0.4,3.5,84,0.00,BKN,,0.00,0.0,WeatherDisplay:10.37,2013-05-08 06:11:00,
2013-05-08 02:16:00,60.2,55.7,30.09,SE,141,2.9,3.5,85,0.00,BKN,,0.00,0.0,WeatherDisplay:10.37,2013-05-08 06:16:00,
2013-05-08 02:21:00,59.9,55.4,30.09,SE,141,0.9,3.5,85,0.00,BKN,,0.00,0.0,WeatherDisplay:10.37,2013-05-08 06:21:00,
2013-05-08 02:26:00,59.8,55.3,30.09,SE,141,2.1,3.5,85,0.00,BKN,,0.00,0.0,WeatherDisplay:10.37,2013-05-08 06:26:00,
2013-05-08 02:31:00,59.6,55.1,30.09,SE,141,2.7,3.5,85,0.00,BKN,,0.00,0.0,WeatherDisplay:10.37,2013-05-08 06:31:00,
2013-05-08 02:36:00,59.5,55.0,30.09,SE,141,1.5,2.3,85,0.00,BKN,,0.00,0.0,WeatherDisplay:10.37,2013-05-08 06:36:00,
2013-05-08 02:41:00,59.4,54.9,30.08,SE,141,0.9,1.2,85,0.00,BKN,,0.00,0.0,WeatherDisplay:10.37,2013-05-08 06:41:00,
2013-05-08 02:46:00,59.3,55.1,30.08,SE,141,0.0,0.0,86,0.00,BKN,,0.00,0.0,WeatherDisplay:10.37,2013-05-08 06:46:00,
2013-05-08 02:51:00,59.2,55.0,30.08,SE,141,0.0,0.0,86,0.00,BKN,,0.00,0.0,WeatherDisplay:10.37,2013-05-08 06:51:00,
2013-05-08 02:56:00,59.0,54.8,30.09,SE,141,0.0,0.0,86,0.00,BKN,,0.00,0.0,WeatherDisplay:10.37,2013-05-08 06:56:00,
2013-05-08 03:01:00,58.9,55.0,30.09,SE,141,0.0,0.0,87,0.00,BKN,,0.00,0.0,WeatherDisplay:10.37,2013-05-08 07:01:00,
2013-05-08 03:06:00,58.8,54.9,30.09,SE,141,0.0,0.0,87,0.00,BKN,,0.00,0.0,WeatherDisplay:10.37,2013-05-08 07:06:00,
2013-05-08 03:12:00,58.7,55.2,30.09,SE,141,0.0,0.0,88,0.00,BKN,,0.00,0.0,WeatherDisplay:10.37,2013-05-08 07:12:00,
2013-05-08 03:17:00,58.4,54.9,30.09,SE,141,0.0,0.0,88,0.00,BKN,,0.00,0.0,WeatherDisplay:10.37,2013-05-08 07:17:00,
2013-05-08 03:22:00,58.2,55.0,30.09,SE,141,0.0,0.0,89,0.00,BKN,,0.00,0.0,WeatherDisplay:10.37,2013-05-08 07:22:00,
2013-05-08 03:27:00,58.0,55.1,30.09,SE,141,0.0,0.0,90,0.00,BKN,,0.00,0.0,WeatherDisplay:10.37,2013-05-08 07:27:00,
2013-05-08 03:32:00,57.9,55.0,30.09,SE,141,0.0,0.0,90,0.00,BKN,,0.00,0.0,WeatherDisplay:10.37,2013-05-08 07:32:00,
2013-05-08 03:37:00,57.9,55.0,30.09,SE,141,0.0,0.0,90,0.00,BKN,,0.00,0.0,WeatherDisplay:10.37,2013-05-08 07:37:00,
2013-05-08 03:42:00,58.0,54.8,30.09,SE,141,0.0,0.0,89,0.00,BKN,,0.00,0.0,WeatherDisplay:10.37,2013-05-08 07:42:00,
2013-05-08 03:47:00,57.7,54.5,30.10,SE,141,0.0,0.0,89,0.00,BKN,,0.00,0.0,WeatherDisplay:10.37,2013-05-08 07:47:00,
2013-05-08 03:52:00,57.4,54.2,30.10,SE,141,0.0,0.0,89,0.00,BKN,,0.00,0.0,WeatherDisplay:10.37,2013-05-08 07:52:00,
2013-05-08 03:57:00,57.1,54.2,30.10,SE,141,0.0,0.0,90,0.00,BKN,,0.00,0.0,WeatherDisplay:10.37,2013-05-08 07:57:00,
2013-05-08 04:02:00,56.9,54.3,30.10,SE,141,0.0,0.0,91,0.00,BKN,,0.00,0.0,WeatherDisplay:10.37,2013-05-08 08:02:00,
2013-05-08 04:07:00,56.8,54.2,30.10,SE,141,0.0,0.0,91,0.00,BKN,,0.00,0.0,WeatherDisplay:10.37,2013-05-08 08:07:00,
2013-05-08 04:12:00,56.6,54.0,30.10,SE,141,0.0,0.0,91,0.00,BKN,,0.00,0.0,WeatherDisplay:10.37,2013-05-08 08:12:00,
2013-05-08 04:17:00,56.5,53.9,30.10,SE,141,0.0,0.0,91,0.00,BKN,,0.00,0.0,WeatherDisplay:10.37,2013-05-08 08:17:00,
2013-05-08 04:22:00,56.3,53.7,30.09,SE,141,0.0,0.0,91,0.00,BKN,,0.00,0.0,WeatherDisplay:10.37,2013-05-08 08:22:00,
2013-05-08 04:27:00,56.0,53.4,30.09,SE,141,0.0,0.0,91,0.00,BKN,,0.00,0.0,WeatherDisplay:10.37,2013-05-08 08:27:00,
2013-05-08 04:32:00,55.7,53.1,30.09,SE,141,0.5,2.3,91,0.00,BKN,,0.00,0.0,WeatherDisplay:10.37,2013-05-08 08:32:00,
2013-05-08 04:37:00,55.5,52.9,30.08,SE,141,1.5,2.3,91,0.00,BKN,,0.00,0.0,WeatherDisplay:10.37,2013-05-08 08:37:00,
2013-05-08 04:42:00,55.2,52.9,30.08,SE,141,1.9,3.5,92,0.00,BKN,,0.00,0.0,WeatherDisplay:10.37,2013-05-08 08:42:00,
2013-05-08 04:47:00,55.0,53.0,30.09,SE,141,0.0,0.0,93,0.00,BKN,,0.00,0.0,WeatherDisplay:10.37,2013-05-08 08:47:00,
2013-05-08 04:52:00,54.8,52.8,30.08,SE,141,0.2,1.2,93,0.00,BKN,,0.00,0.0,WeatherDisplay:10.37,2013-05-08 08:52:00,
2013-05-08 04:57:00,54.7,52.7,30.08,SE,141,0.0,0.0,93,0.00,BKN,,0.00,0.0,WeatherDisplay:10.37,2013-05-08 08:57:00,
2013-05-08 05:02:00,54.6,52.9,30.08,SE,141,0.0,2.0,94,0.00,BKN,,0.00,0.0,WeatherDisplay:10.37,2013-05-08 09:02:00,
2013-05-08 05:07:00,54.6,52.9,30.08,SE,141,0.0,0.0,94,0.00,BKN,,0.00,0.0,WeatherDisplay:10.37,2013-05-08 09:07:00,
2013-05-08 05:12:00,54.8,53.4,30.09,SE,141,0.0,0.0,95,0.00,BKN,,0.00,0.0,WeatherDisplay:10.37,2013-05-08 09:12:00,
2013-05-08 05:17:00,55.1,53.4,30.09,SE,141,0.0,0.0,94,0.00,BKN,,0.00,0.0,WeatherDisplay:10.37,2013-05-08 09:17:00,
2013-05-08 05:22:00,55.1,53.4,30.09,SE,141,0.0,0.0,94,0.00,BKN,,0.00,0.0,WeatherDisplay:10.37,2013-05-08 09:22:00,
2013-05-08 05:27:00,55.2,53.2,30.09,SE,141,0.0,1.0,93,0.00,BKN,,0.00,0.0,WeatherDisplay:10.37,2013-05-08 09:27:00,
2013-05-08 05:32:00,55.1,53.1,30.09,SE,141,0.0,0.0,93,0.00,BKN,,0.00,0.0,WeatherDisplay:10.37,2013-05-08 09:32:00,
2013-05-08 05:37:00,55.2,53.2,30.09,SE,141,0.0,0.0,93,0.00,BKN,,0.00,0.0,WeatherDisplay:10.37,2013-05-08 09:37:00,
2013-05-08 05:42:00,55.1,53.1,30.09,SE,141,0.0,0.0,93,0.00,BKN,,0.00,0.0,WeatherDisplay:10.37,2013-05-08 09:42:00,
2013-05-08 05:47:00,55.0,52.7,30.09,SE,141,0.0,0.0,92,0.00,BKN,,0.00,5.7,WeatherDisplay:10.37,2013-05-08 09:47:00,
2013-05-08 05:52:00,54.7,52.4,30.09,SE,141,0.2,1.2,92,0.00,BKN,,0.00,7.9,WeatherDisplay:10.37,2013-05-08 09:52:00,
2013-05-08 05:57:00,54.5,52.5,30.10,SE,141,0.0,0.0,93,0.00,OVC,,0.00,10.2,WeatherDisplay:10.37,2013-05-08 09:57:00,
2013-05-08 06:02:00,54.4,52.7,30.10,SE,141,0.0,0.0,94,0.00,OVC,,0.00,12.4,WeatherDisplay:10.37,2013-05-08 10:02:00,
2013-05-08 06:07:00,54.4,52.7,30.10,SE,141,0.0,0.0,94,0.00,BKN,,0.00,20.3,WeatherDisplay:10.37,2013-05-08 10:07:00,
2013-05-08 06:12:00,54.4,52.7,30.10,SE,141,0.0,0.0,94,0.00,BKN,,0.00,31.6,WeatherDisplay:10.37,2013-05-08 10:12:00,
2013-05-08 06:17:00,54.6,53.2,30.11,SE,141,0.0,0.0,95,0.00,BKN,,0.00,29.4,WeatherDisplay:10.37,2013-05-08 10:17:00,
2013-05-08 06:22:00,54.8,53.1,30.11,SE,141,0.0,1.2,94,0.00,OVC,,0.00,26.0,WeatherDisplay:10.37,2013-05-08 10:22:00,
2013-05-08 06:27:00,54.8,53.1,30.11,SE,141,0.0,0.0,94,0.00,OVC,,0.00,23.7,WeatherDisplay:10.37,2013-05-08 10:27:00,
2013-05-08 06:32:00,54.6,52.6,30.11,SE,141,0.0,0.0,93,0.00,OVC,,0.00,29.4,WeatherDisplay:10.37,2013-05-08 10:32:00,
2013-05-08 06:37:00,54.3,52.3,30.11,SE,141,0.0,0.0,93,0.00,OVC,,0.00,36.2,WeatherDisplay:10.37,2013-05-08 10:37:00,
2013-05-08 06:42:00,54.3,52.6,30.11,SE,141,0.0,0.0,94,0.00,BKN,,0.00,36.2,WeatherDisplay:10.37,2013-05-08 10:42:00,
2013-05-08 06:47:00,54.3,52.6,30.11,SE,141,0.0,0.0,94,0.00,OVC,,0.00,36.2,WeatherDisplay:10.37,2013-05-08 10:47:00,
2013-05-08 06:52:00,54.3,52.6,30.11,SE,141,0.0,0.0,94,0.00,OVC,,0.00,45.2,WeatherDisplay:10.37,2013-05-08 10:52:00,
2013-05-08 06:57:00,54.6,53.2,30.11,SE,141,0.0,0.0,95,0.00,OVC,,0.00,49.7,WeatherDisplay:10.37,2013-05-08 10:57:00,
2013-05-08 07:02:00,54.8,53.1,30.12,SE,141,0.0,0.0,94,0.00,BKN,,0.00,59.9,WeatherDisplay:10.37,2013-05-08 11:02:00,
2013-05-08 07:07:00,54.9,53.2,30.12,SE,141,0.0,1.0,94,0.00,BKN,,0.00,87.0,WeatherDisplay:10.37,2013-05-08 11:07:00,
2013-05-08 07:12:00,55.2,53.8,30.12,SE,141,0.7,2.3,95,0.00,BKN,,0.00,83.6,WeatherDisplay:10.37,2013-05-08 11:12:00,
2013-05-08 07:17:00,55.7,54.3,30.12,SE,141,0.0,0.0,95,0.00,FEW,,0.00,194.4,WeatherDisplay:10.37,2013-05-08 11:17:00,
2013-05-08 07:22:00,56.3,54.6,30.12,SE,141,0.9,2.3,94,0.00,SCT,,0.00,146.9,WeatherDisplay:10.37,2013-05-08 11:22:00,
2013-05-08 07:27:00,56.8,55.1,30.12,SE,141,1.1,2.3,94,0.00,BKN,,0.00,143.5,WeatherDisplay:10.37,2013-05-08 11:27:00,
2013-05-08 07:32:00,57.3,55.6,30.12,SE,141,0.5,2.3,94,0.00,BKN,,0.00,146.9,WeatherDisplay:10.37,2013-05-08 11:32:00,
2013-05-08 07:37:00,57.8,55.8,30.12,SE,141,0.1,2.3,93,0.00,BKN,,0.00,113.0,WeatherDisplay:10.37,2013-05-08 11:37:00,
2013-05-08 07:42:00,58.3,56.0,30.12,SE,141,0.1,1.2,92,0.00,BKN,,0.00,133.3,WeatherDisplay:10.37,2013-05-08 11:42:00,
2013-05-08 07:47:00,58.7,56.4,30.12,SE,141,1.7,3.5,92,0.00,BKN,,0.00,178.5,WeatherDisplay:10.37,2013-05-08 11:47:00,
2013-05-08 07:52:00,59.2,56.9,30.12,SE,141,0.3,2.3,92,0.00,SCT,,0.00,241.8,WeatherDisplay:10.37,2013-05-08 11:52:00,
2013-05-08 07:57:00,59.7,57.1,30.12,SE,141,0.0,0.0,91,0.00,BKN,,0.00,180.8,WeatherDisplay:10.37,2013-05-08 11:57:00,
2013-05-08 08:03:00,60.3,57.7,30.12,SE,141,0.0,0.0,91,0.00,BKN,,0.00,191.0,WeatherDisplay:10.37,2013-05-08 12:03:00,
2013-05-08 08:08:00,60.9,57.3,30.12,SE,141,0.2,2.0,88,0.00,BKN,,0.00,172.9,WeatherDisplay:10.37,2013-05-08 12:08:00,
2013-05-08 08:13:00,61.5,57.9,30.12,SE,141,0.0,0.0,88,0.00,BKN,,0.00,162.7,WeatherDisplay:10.37,2013-05-08 12:13:00,
2013-05-08 08:18:00,62.0,57.8,30.12,SE,141,0.0,1.2,86,0.00,BKN,,0.00,146.9,WeatherDisplay:10.37,2013-05-08 12:18:00,
2013-05-08 08:23:00,62.5,58.9,30.12,SE,141,0.0,0.0,88,0.00,BKN,,0.00,168.4,WeatherDisplay:10.37,2013-05-08 12:23:00,
2013-05-08 08:28:00,63.0,59.1,30.13,SE,141,0.0,0.0,87,0.00,BKN,,0.00,159.3,WeatherDisplay:10.37,2013-05-08 12:28:00,
2013-05-08 08:33:00,63.4,58.5,30.13,SE,141,0.1,1.0,84,0.00,BKN,,0.00,165.0,WeatherDisplay:10.37,2013-05-08 12:33:00,
2013-05-08 08:38:00,63.7,58.4,30.13,SE,141,0.2,1.2,83,0.00,BKN,,0.00,172.9,WeatherDisplay:10.37,2013-05-08 12:38:00,
2013-05-08 08:43:00,64.0,59.1,30.12,SE,141,0.0,0.0,84,0.00,BKN,,0.00,224.9,WeatherDisplay:10.37,2013-05-08 12:43:00,
2013-05-08 08:48:00,64.5,59.9,30.12,SE,141,0.2,1.2,85,0.00,BKN,,0.00,206.8,WeatherDisplay:10.37,2013-05-08 12:48:00,
2013-05-08 08:53:00,64.8,59.2,30.12,SE,141,0.1,0.0,82,0.00,BKN,,0.00,315.3,WeatherDisplay:10.37,2013-05-08 12:53:00,
2013-05-08 08:58:00,65.3,60.0,30.12,ESE,123,3.8,5.8,83,0.00,SCT,,0.00,421.5,WeatherDisplay:10.37,2013-05-08 12:58:00,
2013-05-08 09:03:00,66.2,60.9,30.12,East,90,0.5,2.0,83,0.00,FEW,,0.00,448.6,WeatherDisplay:10.37,2013-05-08 13:03:00,
2013-05-08 09:08:00,66.8,60.1,30.11,East,90,0.8,3.5,79,0.00,SCT,,0.00,317.5,WeatherDisplay:10.37,2013-05-08 13:08:00,
2013-05-08 09:13:00,67.1,60.0,30.11,East,90,1.4,3.5,78,0.00,BKN,,0.00,306.2,WeatherDisplay:10.37,2013-05-08 13:13:00,
2013-05-08 09:18:00,67.5,60.4,30.11,East,90,0.6,2.3,78,0.00,BKN,,0.00,285.9,WeatherDisplay:10.37,2013-05-08 13:18:00,
2013-05-08 09:23:00,67.7,60.2,30.11,East,90,1.2,2.3,77,0.00,BKN,,0.00,275.7,WeatherDisplay:10.37,2013-05-08 13:23:00,
2013-05-08 09:28:00,67.9,60.4,30.11,East,90,0.0,1.0,77,0.00,BKN,,0.00,357.1,WeatherDisplay:10.37,2013-05-08 13:28:00,
2013-05-08 09:33:00,68.3,60.8,30.10,East,90,0.2,3.5,77,0.00,SCT,,0.00,291.5,WeatherDisplay:10.37,2013-05-08 13:33:00,
2013-05-08 09:43:00,69.0,59.2,30.10,ESE,113,5.1,5.8,71,0.00,OVC,,0.00,398.9,WeatherDisplay:10.37,2013-05-08 13:43:00,
2013-05-08 09:48:00,69.4,59.2,30.11,South,188,0.6,3.0,70,0.00,SCT,,0.00,414.7,WeatherDisplay:10.37,2013-05-08 13:48:00,
2013-05-08 09:53:00,69.5,60.1,30.11,SW,223,2.8,4.6,72,0.00,BKN,,0.00,280.2,WeatherDisplay:10.37,2013-05-08 13:53:00,
2013-05-08 09:58:00,69.2,60.2,30.11,SW,225,2.1,3.0,73,0.00,BKN,,0.00,228.3,WeatherDisplay:10.37,2013-05-08 13:58:00,
2013-05-08 10:03:00,69.1,59.3,30.11,SSW,205,2.5,5.8,71,0.00,BKN,,0.00,194.4,WeatherDisplay:10.37,2013-05-08 14:03:00,
2013-05-08 10:08:00,69.0,58.4,30.11,South,190,3.9,9.2,69,0.00,OVC,,0.00,176.3,WeatherDisplay:10.37,2013-05-08 14:08:00,
2013-05-08 10:13:00,68.9,58.7,30.11,SSW,192,4.5,8.1,70,0.00,OVC,,0.00,168.4,WeatherDisplay:10.37,2013-05-08 14:13:00,
2013-05-08 10:19:00,68.9,57.9,30.11,SSW,192,2.8,8.1,68,0.00,OVC,,0.00,210.2,WeatherDisplay:10.37,2013-05-08 14:19:00,
2013-05-08 10:24:00,68.9,57.9,30.11,SSW,194,5.6,11.5,68,0.00,BKN,,0.00,228.3,WeatherDisplay:10.37,2013-05-08 14:24:00,
2013-05-08 10:29:00,69.0,58.4,30.11,SSE,164,3.4,5.8,69,0.00,BKN,,0.00,230.5,WeatherDisplay:10.37,2013-05-08 14:29:00,
2013-05-08 10:34:00,69.1,58.5,30.11,SE,144,2.9,6.9,69,0.00,BKN,,0.00,278.0,WeatherDisplay:10.37,2013-05-08 14:34:00,
2013-05-08 10:39:00,69.3,59.5,30.11,SE,136,3.0,4.6,71,0.00,BKN,,0.00,353.7,WeatherDisplay:10.37,2013-05-08 14:39:00,
2013-05-08 10:44:00,69.7,59.1,30.11,ESE,113,5.1,7.0,69,0.00,BKN,,0.00,413.6,WeatherDisplay:10.37,2013-05-08 14:44:00,
2013-05-08 10:49:00,70.0,59.4,30.10,SE,136,4.3,6.9,69,0.00,BKN,,0.00,371.8,WeatherDisplay:10.37,2013-05-08 14:49:00,
2013-05-08 10:54:00,70.2,59.1,30.10,ESE,108,2.4,5.0,68,0.00,BKN,,0.00,298.3,WeatherDisplay:10.37,2013-05-08 14:54:00,
2013-05-08 10:59:00,70.3,58.8,30.10,ESE,111,3.0,5.8,67,0.00,BKN,,0.00,299.4,WeatherDisplay:10.37,2013-05-08 14:59:00,
2013-05-08 11:04:00,70.4,59.3,30.10,SE,136,5.4,9.2,68,0.00,BKN,,0.00,381.9,WeatherDisplay:10.37,2013-05-08 15:04:00,
2013-05-08 11:09:00,70.6,59.1,30.10,SE,131,8.7,14.0,67,0.00,BKN,,0.00,455.4,WeatherDisplay:10.37,2013-05-08 15:09:00,
2013-05-08 11:14:00,70.8,59.7,30.09,East,84,7.5,11.5,68,0.00,SCT,,0.00,528.8,WeatherDisplay:10.37,2013-05-08 15:14:00,
2013-05-08 11:19:00,71.3,59.4,30.10,SE,141,6.2,10.4,66,0.00,BKN,,0.00,304.0,WeatherDisplay:10.37,2013-05-08 15:19:00,
2013-05-08 11:24:00,71.1,59.2,30.09,SE,128,9.9,13.8,66,0.00,OVC,,0.00,236.2,WeatherDisplay:10.37,2013-05-08 15:24:00,
2013-05-08 11:29:00,70.5,59.0,30.09,ESE,118,10.0,12.7,67,0.00,OVC,,0.00,201.1,WeatherDisplay:10.37,2013-05-08 15:29:00,
2013-05-08 11:34:00,70.1,58.6,30.09,SE,133,9.3,11.5,67,0.00,OVC,,0.00,143.5,WeatherDisplay:10.37,2013-05-08 15:34:00,
2013-05-08 11:39:00,69.8,59.6,30.09,SE,142,5.8,9.2,70,0.00,OVC,,0.00,202.3,WeatherDisplay:10.37,2013-05-08 15:39:00,
2013-05-08 11:44:00,69.6,58.6,30.09,ESE,110,6.1,10.4,68,0.00,OVC,,0.00,222.6,WeatherDisplay:10.37,2013-05-08 15:44:00,
2013-05-08 11:49:00,69.6,59.0,30.09,ESE,121,11.4,19.6,69,0.00,BKN,,0.00,361.6,WeatherDisplay:10.37,2013-05-08 15:49:00,
2013-05-08 11:54:00,69.4,58.4,30.09,ESE,103,12.0,21.9,68,0.00,BKN,,0.00,259.9,WeatherDisplay:10.37,2013-05-08 15:54:00,
2013-05-08 11:59:00,69.1,58.5,30.09,East,101,12.5,18.4,69,0.00,BKN,,0.00,389.9,WeatherDisplay:10.37,2013-05-08 15:59:00,
2013-05-08 12:04:00,69.0,59.2,30.09,ESE,113,15.0,18.4,71,0.00,BKN,,0.00,307.4,WeatherDisplay:10.37,2013-05-08 16:04:00,
2013-05-08 12:09:00,69.1,58.9,30.08,ESE,108,6.3,11.5,70,0.00,BKN,,0.00,333.4,WeatherDisplay:10.37,2013-05-08 16:09:00,
2013-05-08 12:14:00,69.3,59.5,30.08,SE,133,5.0,6.9,71,0.00,BKN,,0.00,330.0,WeatherDisplay:10.37,2013-05-08 16:14:00,
2013-05-08 12:19:00,69.4,59.6,30.08,ESE,108,6.3,9.0,71,0.00,BKN,,0.00,298.3,WeatherDisplay:10.37,2013-05-08 16:19:00,
2013-05-08 12:24:00,69.6,59.0,30.07,East,82,5.8,8.1,69,0.00,BKN,,0.00,429.4,WeatherDisplay:10.37,2013-05-08 16:24:00,
2013-05-08 12:29:00,70.2,60.7,30.07,ESE,121,10.3,16.1,72,0.00,SCT,,0.00,641.8,WeatherDisplay:10.37,2013-05-08 16:29:00,
2013-05-08 12:34:00,71.0,59.9,30.07,SE,131,5.3,7.0,68,0.00,SCT,,0.00,537.9,WeatherDisplay:10.37,2013-05-08 16:34:00,
2013-05-08 12:39:00,71.5,59.1,30.07,ESE,117,6.2,19.0,65,0.00,SCT,,0.00,450.9,WeatherDisplay:10.37,2013-05-08 16:39:00,
2013-05-08 12:44:00,71.3,58.5,30.06,SSE,147,7.1,10.0,64,0.00,BKN,,0.00,385.3,WeatherDisplay:10.37,2013-05-08 16:44:00,
2013-05-08 12:49:00,71.0,58.6,30.06,SE,143,9.9,15.0,65,0.00,BKN,,0.00,419.2,WeatherDisplay:10.37,2013-05-08 16:49:00,
2013-05-08 12:54:00,71.1,58.7,30.06,ESE,115,8.1,11.5,65,0.00,BKN,,0.00,375.2,WeatherDisplay:10.37,2013-05-08 16:54:00,
2013-05-08 12:59:00,71.1,58.3,30.06,SSW,206,4.9,11.5,64,0.00,BKN,,0.00,315.3,WeatherDisplay:10.37,2013-05-08 16:59:00,
2013-05-08 13:04:00,71.1,58.7,30.06,SE,139,12.5,18.4,65,0.00,BKN,,0.00,372.9,WeatherDisplay:10.37,2013-05-08 17:04:00,
2013-05-08 13:09:00,70.9,58.1,30.06,ESE,113,13.8,18.4,64,0.00,BKN,,0.00,435.1,WeatherDisplay:10.37,2013-05-08 17:09:00,
2013-05-08 13:14:00,71.1,58.7,30.05,SE,137,6.1,15.0,65,0.00,BKN,,0.00,385.3,WeatherDisplay:10.37,2013-05-08 17:14:00,
2013-05-08 13:19:00,71.1,58.3,30.05,SE,131,10.2,16.1,64,0.00,BKN,,0.00,259.9,WeatherDisplay:10.37,2013-05-08 17:19:00,
2013-05-08 13:24:00,70.9,57.7,30.06,SE,146,13.6,20.7,63,0.00,OVC,,0.00,240.7,WeatherDisplay:10.37,2013-05-08 17:24:00,
2013-05-08 13:29:00,70.6,57.8,30.05,SE,138,11.8,19.6,64,0.00,BKN,,0.00,248.6,WeatherDisplay:10.37,2013-05-08 17:29:00,
2013-05-08 13:34:00,70.4,58.1,30.05,South,189,4.2,11.5,65,0.00,OVC,,0.00,118.7,WeatherDisplay:10.37,2013-05-08 17:34:00,
2013-05-08 13:39:00,70.0,58.5,30.05,ESE,119,13.1,16.1,67,0.00,OVC,,0.00,118.7,WeatherDisplay:10.37,2013-05-08 17:39:00,
2013-05-08 13:44:00,69.5,57.6,30.05,SE,126,17.5,24.2,66,0.00,OVC,,0.00,193.2,WeatherDisplay:10.37,2013-05-08 17:44:00,
2013-05-08 13:49:00,69.2,58.2,30.05,ESE,119,10.7,18.4,68,0.00,OVC,,0.00,258.8,WeatherDisplay:10.37,2013-05-08 17:49:00,
2013-05-08 13:54:00,69.4,57.1,30.05,ESE,109,9.4,11.5,65,0.00,BKN,,0.00,456.5,WeatherDisplay:10.37,2013-05-08 17:54:00,
2013-05-08 13:59:00,69.7,55.6,30.04,East,87,6.0,11.5,61,0.00,BKN,,0.00,424.9,WeatherDisplay:10.37,2013-05-08 17:59:00,
2013-05-08 14:04:00,69.8,55.7,30.04,ESE,107,5.4,8.1,61,0.00,BKN,,0.00,291.5,WeatherDisplay:10.37,2013-05-08 18:04:00,
2013-05-08 14:09:00,69.7,57.0,30.04,SE,128,9.9,12.7,64,0.00,OVC,,0.00,217.0,WeatherDisplay:10.37,2013-05-08 18:09:00,
2013-05-08 14:14:00,69.4,56.3,30.04,East,97,2.5,5.8,63,0.00,OVC,,0.00,178.5,WeatherDisplay:10.37,2013-05-08 18:14:00,
2013-05-08 14:19:00,69.3,56.6,30.04,East,96,5.1,6.9,64,0.00,OVC,,0.00,209.1,WeatherDisplay:10.37,2013-05-08 18:19:00,
2013-05-08 14:24:00,69.4,58.0,30.05,ESE,123,4.6,8.0,67,0.00,BKN,,0.00,290.4,WeatherDisplay:10.37,2013-05-08 18:24:00,
2013-05-08 14:29:00,69.6,59.0,30.05,SE,131,2.0,5.8,69,0.00,BKN,,0.00,258.8,WeatherDisplay:10.37,2013-05-08 18:29:00,
2013-05-08 14:34:00,69.8,57.5,30.04,ESE,104,3.2,4.6,65,0.00,BKN,,0.00,249.7,WeatherDisplay:10.37,2013-05-08 18:34:00,
2013-05-08 14:39:00,70.1,58.2,30.04,ESE,111,3.4,9.2,66,0.00,OVC,,0.00,194.4,WeatherDisplay:10.37,2013-05-08 18:39:00,
2013-05-08 14:44:00,70.2,58.7,30.03,SE,138,6.3,9.0,67,0.00,OVC,,0.00,244.1,WeatherDisplay:10.37,2013-05-08 18:44:00,
2013-05-08 14:49:00,70.3,58.4,30.03,ESE,104,7.7,12.0,66,0.00,BKN,,0.00,270.1,WeatherDisplay:10.37,2013-05-08 18:49:00,
2013-05-08 14:54:00,70.3,58.4,30.03,SE,126,4.2,11.0,66,0.00,BKN,,0.00,196.6,WeatherDisplay:10.37,2013-05-08 18:54:00,
2013-05-08 14:59:00,70.4,58.9,30.03,ESE,109,4.6,6.0,67,0.00,OVC,,0.00,209.1,WeatherDisplay:10.37,2013-05-08 18:59:00,
2013-05-08 15:04:00,70.4,58.9,30.02,ESE,116,5.9,11.5,67,0.00,BKN,,0.00,264.4,WeatherDisplay:10.37,2013-05-08 19:04:00,
2013-05-08 15:09:00,70.7,58.8,30.02,SE,131,4.0,5.0,66,0.00,BKN,,0.00,488.2,WeatherDisplay:10.37,2013-05-08 19:09:00,
2013-05-08 15:14:00,71.5,60.4,30.01,ESE,109,3.7,5.8,68,0.00,SCT,,0.00,530.0,WeatherDisplay:10.37,2013-05-08 19:14:00,
2013-05-08 15:19:00,72.1,59.2,30.01,ESE,108,4.5,8.1,64,0.00,BKN,,0.00,411.3,WeatherDisplay:10.37,2013-05-08 19:19:00,
2013-05-08 15:24:00,72.4,60.0,30.01,ESE,108,5.6,11.5,65,0.00,BKN,,0.00,246.3,WeatherDisplay:10.37,2013-05-08 19:24:00,
2013-05-08 15:29:00,72.2,59.3,30.00,NE,47,5.8,10.0,64,0.00,BKN,,0.00,198.9,WeatherDisplay:10.37,2013-05-08 19:29:00,
2013-05-08 15:34:00,72.0,58.3,30.00,ESE,123,6.9,15.0,62,0.00,OVC,,0.00,228.3,WeatherDisplay:10.37,2013-05-08 19:34:00,
2013-05-08 15:39:00,71.9,59.1,30.00,ENE,63,7.7,9.2,64,0.00,BKN,,0.00,194.4,WeatherDisplay:10.37,2013-05-08 19:39:00,
2013-05-08 15:45:00,71.9,58.2,30.00,East,95,5.1,8.1,62,0.00,OVC,,0.00,184.2,WeatherDisplay:10.37,2013-05-08 19:45:00,
2013-05-08 15:50:00,71.9,58.6,30.00,ESE,105,3.9,5.8,63,0.00,BKN,,0.00,204.5,WeatherDisplay:10.37,2013-05-08 19:50:00,
2013-05-08 15:55:00,71.9,58.2,30.00,ESE,119,8.2,16.1,62,0.00,BKN,,0.00,183.1,WeatherDisplay:10.37,2013-05-08 19:55:00,
2013-05-08 16:00:00,71.8,58.1,29.99,SSE,153,6.9,11.5,62,0.00,OVC,,0.00,128.8,WeatherDisplay:10.37,2013-05-08 20:00:00,
2013-05-08 16:05:00,71.5,57.3,29.99,ESE,111,7.3,15.0,61,0.00,OVC,,0.00,59.9,WeatherDisplay:10.37,2013-05-08 20:05:00,
2013-05-08 16:10:00,71.3,57.6,29.99,ESE,123,11.0,15.0,62,0.00,OVC,,0.00,37.3,WeatherDisplay:10.37,2013-05-08 20:10:00,
2013-05-08 16:15:00,70.6,59.5,30.01,ESE,118,14.0,24.0,68,0.00,OVC,,0.00,37.3,WeatherDisplay:10.37,2013-05-08 20:15:00,
2013-05-08 16:20:00,68.2,59.2,30.01,ESE,119,12.0,22.0,73,0.00,RA,,0.01,33.9,WeatherDisplay:10.37,2013-05-08 20:20:00,
2013-05-08 16:25:00,66.3,59.6,30.01,SE,136,7.9,11.5,79,0.02,RA,,0.02,59.9,WeatherDisplay:10.37,2013-05-08 20:25:00,
2013-05-08 16:30:00,65.5,59.9,30.02,SE,139,3.0,12.0,82,0.02,RA,,0.03,99.4,WeatherDisplay:10.37,2013-05-08 20:30:00,
2013-05-08 16:35:00,64.9,60.3,30.02,ESE,121,2.4,4.6,85,0.03,RA,,0.04,133.3,WeatherDisplay:10.37,2013-05-08 20:35:00,
2013-05-08 16:40:00,64.6,61.0,30.01,SE,124,3.0,7.0,88,0.01,RA,,0.04,141.3,WeatherDisplay:10.37,2013-05-08 20:40:00,
2013-05-08 16:45:00,64.5,60.9,30.01,ESE,123,5.0,6.0,88,0.01,RA,,0.05,175.2,WeatherDisplay:10.37,2013-05-08 20:45:00,
2013-05-08 16:50:00,64.4,61.1,30.01,SE,126,0.2,1.2,89,0.05,RA,,0.05,191.0,WeatherDisplay:10.37,2013-05-08 20:50:00,
2013-05-08 16:55:00,64.4,61.1,30.01,SE,126,0.5,2.0,89,0.06,RA,,0.06,157.1,WeatherDisplay:10.37,2013-05-08 20:55:00,
2013-05-08 17:00:00,64.4,61.4,30.01,SE,128,3.2,4.6,90,0.06,RA,,0.06,125.4,WeatherDisplay:10.37,2013-05-08 21:00:00,
2013-05-08 17:05:00,64.4,61.4,30.01,SSE,159,2.0,5.0,90,0.00,BKN,,0.06,110.7,WeatherDisplay:10.37,2013-05-08 21:05:00,
2013-05-08 17:10:00,64.3,61.3,30.02,South,175,0.0,2.0,90,0.00,BKN,,0.06,109.6,WeatherDisplay:10.37,2013-05-08 21:10:00,
2013-05-08 17:15:00,64.3,61.3,30.01,South,175,1.0,4.0,90,0.00,OVC,,0.06,45.2,WeatherDisplay:10.37,2013-05-08 21:15:00,
2013-05-08 17:20:00,64.2,61.2,30.01,ESE,117,4.6,6.9,90,0.05,OVC,,0.06,18.1,WeatherDisplay:10.37,2013-05-08 21:20:00,
2013-05-08 17:25:00,64.0,61.0,30.01,SE,127,1.0,7.0,90,0.01,RA,,0.07,15.8,WeatherDisplay:10.37,2013-05-08 21:25:00,
2013-05-08 17:30:00,63.8,60.5,30.01,ESE,110,3.0,9.0,89,0.00,RA,,0.07,15.8,WeatherDisplay:10.37,2013-05-08 21:30:00,
2013-05-08 17:35:00,63.6,60.6,30.01,SE,124,5.7,9.2,90,0.05,RA,,0.08,28.3,WeatherDisplay:10.37,2013-05-08 21:35:00,
2013-05-08 17:40:00,63.5,60.8,30.00,ESE,114,3.0,7.0,91,0.02,RA,,0.09,37.3,WeatherDisplay:10.37,2013-05-08 21:40:00,
2013-05-08 17:45:00,63.2,60.8,29.99,East,90,4.7,4.7,92,0.04,RA,,0.09,41.8,WeatherDisplay:10.37,2013-05-08 21:45:00,
2013-05-08 17:50:00,63.0,60.6,29.99,East,101,1.4,5.8,92,0.04,BKN,,0.09,93.8,WeatherDisplay:10.37,2013-05-08 21:50:00,
2013-05-08 17:55:00,62.9,60.9,29.99,ESE,104,2.0,5.0,93,0.00,BKN,,0.09,99.4,WeatherDisplay:10.37,2013-05-08 21:55:00,
2013-05-08 18:00:00,62.9,60.5,29.99,ESE,106,4.6,6.9,92,0.03,BKN,,0.09,102.8,WeatherDisplay:10.37,2013-05-08 22:00:00,
2013-05-08 18:05:00,63.1,60.7,29.99,ESE,110,6.0,8.0,92,0.00,BKN,,0.09,109.6,WeatherDisplay:10.37,2013-05-08 22:05:00,
2013-05-08 18:10:00,63.4,61.0,29.99,ESE,121,1.0,12.0,92,0.00,SCT,,0.09,107.3,WeatherDisplay:10.37,2013-05-08 22:10:00,
2013-05-08 18:15:00,63.5,60.5,29.99,South,184,2.6,3.5,90,0.03,BKN,,0.09,65.5,WeatherDisplay:10.37,2013-05-08 22:15:00,
2013-05-08 18:20:00,63.6,60.6,29.99,South,176,2.0,6.0,90,0.00,RA,,0.10,57.6,WeatherDisplay:10.37,2013-05-08 22:20:00,
2013-05-08 18:25:00,63.6,60.6,29.98,SE,125,6.0,9.0,90,0.00,RA,,0.10,61.0,WeatherDisplay:10.37,2013-05-08 22:25:00,
2013-05-08 18:30:00,63.7,60.7,29.98,ESE,122,7.5,7.5,90,0.03,BKN,,0.10,55.4,WeatherDisplay:10.37,2013-05-08 22:30:00,
2013-05-08 18:35:00,63.8,60.5,29.98,ESE,116,7.0,12.0,89,0.00,BKN,,0.10,67.8,WeatherDisplay:10.37,2013-05-08 22:35:00,
2013-05-08 18:40:00,63.9,60.6,29.98,ESE,117,7.0,12.0,89,0.00,BKN,,0.10,75.7,WeatherDisplay:10.37,2013-05-08 22:40:00,
2013-05-08 18:45:00,63.9,60.6,29.98,ESE,120,5.0,7.0,89,0.00,BKN,,0.10,81.4,WeatherDisplay:10.37,2013-05-08 22:45:00,
2013-05-08 18:50:00,64.0,60.7,29.98,ESE,119,9.6,11.0,89,0.01,BKN,,0.10,89.3,WeatherDisplay:10.37,2013-05-08 22:50:00,
2013-05-08 18:55:00,64.0,60.7,29.98,ESE,115,7.0,13.0,89,0.00,BKN,,0.10,85.9,WeatherDisplay:10.37,2013-05-08 22:55:00,
2013-05-08 19:00:00,64.0,60.7,29.98,ESE,107,6.0,9.0,89,0.01,BKN,,0.10,79.1,WeatherDisplay:10.37,2013-05-08 23:00:00,
2013-05-08 19:05:00,64.0,60.7,29.98,ESE,119,7.7,11.5,89,0.01,BKN,,0.10,71.2,WeatherDisplay:10.37,2013-05-08 23:05:00,
2013-05-08 19:10:00,63.9,60.6,29.98,ESE,121,6.0,9.0,89,0.00,BKN,,0.10,55.4,WeatherDisplay:10.37,2013-05-08 23:10:00,
2013-05-08 19:15:00,63.8,60.5,29.98,SSE,154,5.9,8.1,89,0.01,BKN,,0.10,45.2,WeatherDisplay:10.37,2013-05-08 23:15:00,
2013-05-08 19:20:00,63.7,60.4,29.98,SE,128,5.0,12.0,89,0.00,BKN,,0.10,36.2,WeatherDisplay:10.37,2013-05-08 23:20:00,
2013-05-08 19:25:00,63.6,60.3,29.98,SE,138,4.9,6.0,89,0.00,BKN,,0.10,26.0,WeatherDisplay:10.37,2013-05-08 23:25:00,
2013-05-08 19:30:00,63.5,60.2,29.98,SE,133,6.6,6.6,89,0.00,BKN,,0.10,20.3,WeatherDisplay:10.37,2013-05-08 23:30:00,
2013-05-08 19:35:00,63.3,60.0,29.98,SE,132,5.0,9.0,89,0.00,BKN,,0.10,18.1,WeatherDisplay:10.37,2013-05-08 23:35:00,
2013-05-08 19:40:00,63.2,59.9,29.98,SE,127,7.0,9.0,89,0.00,BKN,,0.10,15.8,WeatherDisplay:10.37,2013-05-08 23:40:00,
2013-05-08 19:45:00,63.0,59.7,29.98,SE,124,6.0,8.0,89,0.00,BKN,,0.10,13.6,WeatherDisplay:10.37,2013-05-08 23:45:00,
2013-05-08 19:50:00,62.7,59.7,29.98,ESE,122,3.0,5.8,90,0.00,BKN,,0.10,10.2,WeatherDisplay:10.37,2013-05-08 23:50:00,
2013-05-08 19:55:00,62.5,59.5,29.98,ESE,122,3.3,5.8,90,0.00,BKN,,0.10,5.7,WeatherDisplay:10.37,2013-05-08 23:55:00,
2013-05-08 20:00:00,62.3,59.6,29.98,ESE,110,5.3,6.0,91,0.00,BKN,,0.10,0.0,WeatherDisplay:10.37,2013-05-09 00:00:00,
2013-05-08 20:05:00,62.1,59.4,29.98,ESE,114,2.0,7.0,91,0.00,BKN,,0.10,0.0,WeatherDisplay:10.37,2013-05-09 00:05:00,
2013-05-08 20:10:00,62.0,59.3,29.98,ESE,115,2.9,6.9,91,0.00,BKN,,0.10,0.0,WeatherDisplay:10.37,2013-05-09 00:10:00,
2013-05-08 20:15:00,61.9,58.9,29.98,ESE,118,4.5,4.6,90,0.00,BKN,,0.10,0.0,WeatherDisplay:10.37,2013-05-09 00:15:00,
2013-05-08 20:20:00,61.7,58.7,29.98,SE,127,3.0,7.0,90,0.00,BKN,,0.10,0.0,WeatherDisplay:10.37,2013-05-09 00:20:00,
2013-05-08 20:25:00,61.6,58.9,29.98,SE,126,3.6,5.0,91,0.00,BKN,,0.10,0.0,WeatherDisplay:10.37,2013-05-09 00:25:00,
2013-05-08 20:30:00,61.4,58.4,29.98,SE,126,3.0,6.0,90,0.00,BKN,,0.10,0.0,WeatherDisplay:10.37,2013-05-09 00:30:00,
2013-05-08 20:35:00,61.1,58.5,29.99,ESE,117,3.1,6.0,91,0.00,BKN,,0.10,0.0,WeatherDisplay:10.37,2013-05-09 00:35:00,
2013-05-08 20:40:00,60.9,58.3,29.98,SE,135,2.3,6.9,91,0.00,BKN,,0.10,0.0,WeatherDisplay:10.37,2013-05-09 00:40:00,
2013-05-08 20:45:00,60.9,58.3,29.98,SE,130,3.5,4.6,91,0.00,BKN,,0.10,0.0,WeatherDisplay:10.37,2013-05-09 00:45:00,
2013-05-08 20:50:00,60.9,58.3,29.99,SE,130,1.5,2.3,91,0.00,BKN,,0.10,0.0,WeatherDisplay:10.37,2013-05-09 00:50:00,
2013-05-08 20:55:00,60.9,58.6,29.99,SE,130,0.0,0.0,92,0.00,BKN,,0.10,0.0,WeatherDisplay:10.37,2013-05-09 00:55:00,
2013-05-08 21:00:00,61.0,58.4,29.99,SE,130,0.0,4.0,91,0.00,BKN,,0.10,0.0,WeatherDisplay:10.37,2013-05-09 01:00:00,
2013-05-08 21:05:00,61.0,58.4,29.99,SE,130,0.0,0.0,91,0.00,BKN,,0.10,0.0,WeatherDisplay:10.37,2013-05-09 01:05:00,
2013-05-08 21:10:00,60.9,58.3,29.99,SE,130,0.9,2.3,91,0.00,BKN,,0.10,0.0,WeatherDisplay:10.37,2013-05-09 01:10:00,
2013-05-08 21:15:00,60.9,58.6,30.00,SSE,147,1.0,4.0,92,0.00,BKN,,0.10,0.0,WeatherDisplay:10.37,2013-05-09 01:15:00,
2013-05-08 21:20:00,60.9,58.3,30.00,SSW,195,0.8,2.3,91,0.00,BKN,,0.10,0.0,WeatherDisplay:10.37,2013-05-09 01:20:00,
2013-05-08 21:25:00,60.9,58.3,30.00,SSW,195,2.0,4.0,91,0.00,BKN,,0.10,0.0,WeatherDisplay:10.37,2013-05-09 01:25:00,
2013-05-08 21:30:00,60.9,58.3,30.00,SSW,195,1.1,2.3,91,0.00,BKN,,0.10,0.0,WeatherDisplay:10.37,2013-05-09 01:30:00,
2013-05-08 21:35:00,60.8,58.2,30.00,South,185,0.2,3.5,91,0.00,BKN,,0.10,0.0,WeatherDisplay:10.37,2013-05-09 01:35:00,
2013-05-08 21:40:00,60.4,57.8,30.00,South,184,1.7,2.0,91,0.00,BKN,,0.10,0.0,WeatherDisplay:10.37,2013-05-09 01:40:00,
2013-05-08 21:45:00,60.0,57.7,30.00,South,184,0.2,1.0,92,0.00,BKN,,0.10,0.0,WeatherDisplay:10.37,2013-05-09 01:45:00,
2013-05-08 21:50:00,59.7,57.7,30.00,South,184,0.0,0.0,93,0.00,BKN,,0.10,0.0,WeatherDisplay:10.37,2013-05-09 01:50:00,
2013-05-08 21:55:00,59.6,57.9,30.00,South,184,0.0,3.0,94,0.00,BKN,,0.10,0.0,WeatherDisplay:10.37,2013-05-09 01:55:00,
2013-05-08 22:00:00,59.5,57.8,30.00,South,184,0.0,0.0,94,0.00,BKN,,0.10,0.0,WeatherDisplay:10.37,2013-05-09 02:00:00,
2013-05-08 22:05:00,59.6,57.9,30.01,South,184,0.0,0.0,94,0.00,BKN,,0.10,0.0,WeatherDisplay:10.37,2013-05-09 02:05:00,
2013-05-08 22:10:00,59.6,57.9,30.01,South,184,0.0,1.0,94,0.00,BKN,,0.10,0.0,WeatherDisplay:10.37,2013-05-09 02:10:00,
2013-05-08 22:15:00,59.7,58.0,30.01,ESE,103,1.9,6.0,94,0.00,BKN,,0.10,0.0,WeatherDisplay:10.37,2013-05-09 02:15:00,
2013-05-08 22:20:00,59.6,57.6,30.00,SE,138,3.0,8.0,93,0.00,BKN,,0.10,0.0,WeatherDisplay:10.37,2013-05-09 02:20:00,
2013-05-08 22:25:00,59.5,57.2,30.00,SE,142,1.0,5.0,92,0.00,BKN,,0.10,0.0,WeatherDisplay:10.37,2013-05-09 02:25:00,
2013-05-08 22:30:00,59.4,57.1,30.00,ESE,118,5.4,7.0,92,0.00,BKN,,0.10,0.0,WeatherDisplay:10.37,2013-05-09 02:30:00,
2013-05-08 22:35:00,59.4,57.1,30.00,SE,126,3.0,7.0,92,0.00,BKN,,0.10,0.0,WeatherDisplay:10.37,2013-05-09 02:35:00,
2013-05-08 22:40:00,59.5,57.2,30.00,ESE,123,5.0,6.0,92,0.00,BKN,,0.10,0.0,WeatherDisplay:10.37,2013-05-09 02:40:00,
2013-05-08 22:45:00,59.5,57.2,30.00,SE,134,4.5,5.8,92,0.00,BKN,,0.10,0.0,WeatherDisplay:10.37,2013-05-09 02:45:00,
2013-05-08 22:50:00,59.6,57.3,30.00,SE,134,3.0,8.0,92,0.00,BKN,,0.10,0.0,WeatherDisplay:10.37,2013-05-09 02:50:00,
2013-05-08 22:55:00,59.7,57.1,30.00,ESE,122,1.9,4.0,91,0.00,BKN,,0.10,0.0,WeatherDisplay:10.37,2013-05-09 02:55:00,
2013-05-08 23:00:00,59.7,57.1,30.00,SSE,154,1.7,4.0,91,0.00,BKN,,0.10,0.0,WeatherDisplay:10.37,2013-05-09 03:00:00,
2013-05-08 23:05:00,59.8,57.2,30.00,SE,144,3.0,7.0,91,0.00,BKN,,0.10,0.0,WeatherDisplay:10.37,2013-05-09 03:05:00,
2013-05-08 23:10:00,59.8,57.2,30.00,South,187,4.5,11.5,91,0.00,BKN,,0.10,0.0,WeatherDisplay:10.37,2013-05-09 03:10:00,
2013-05-08 23:15:00,60.0,57.1,30.01,SSE,167,1.0,4.0,90,0.00,BKN,,0.10,0.0,WeatherDisplay:10.37,2013-05-09 03:15:00,
2013-05-08 23:20:00,60.2,57.3,30.01,South,181,2.0,6.0,90,0.00,BKN,,0.10,0.0,WeatherDisplay:10.37,2013-05-09 03:20:00,
2013-05-08 23:25:00,60.4,57.1,30.00,South,186,2.8,4.6,89,0.00,BKN,,0.10,0.0,WeatherDisplay:10.37,2013-05-09 03:25:00,
2013-05-08 23:30:00,60.6,57.3,30.00,South,187,3.1,4.6,89,0.00,BKN,,0.10,0.0,WeatherDisplay:10.37,2013-05-09 03:30:00,
2013-05-08 23:35:00,60.9,57.3,30.00,South,187,5.0,10.0,88,0.00,BKN,,0.10,0.0,WeatherDisplay:10.37,2013-05-09 03:35:00,
2013-05-08 23:40:00,61.0,57.4,30.00,South,189,3.6,11.5,88,0.00,BKN,,0.10,0.0,WeatherDisplay:10.37,2013-05-09 03:40:00,
2013-05-08 23:45:00,61.1,57.5,30.00,South,188,3.8,9.2,88,0.00,BKN,,0.10,0.0,WeatherDisplay:10.37,2013-05-09 03:45:00,
2013-05-08 23:50:00,61.1,57.5,30.00,SSW,197,2.2,3.5,88,0.00,BKN,,0.10,0.0,WeatherDisplay:10.37,2013-05-09 03:50:00,
2013-05-08 23:55:00,61.1,57.5,30.00,South,188,7.2,10.4,88,0.00,BKN,,0.10,0.0,WeatherDisplay:10.37,2013-05-09 03:55:00,